User: anonymous   Login
Location: Unspecified
(0.0000°N, 0.0000°E)
Time: 13:33:47
(UTC+00:00)
Language:

Vela 1B - Orbit

View from above orbital plane
View from above orbital plane
View from above satellite
View from above satellite

Ground track
Ground track

The orbit data is extracted from the following two-line orbital elements,

1   674U 63039A   17188.99088534 -.00000316 +00000-0 +00000-0 0  9990
2   674 026.6946 195.0207 5924984 116.6382 359.2663 00.22202230043592
Epoch (UTC): 07 July 2017 23:46:52
Eccentricity: 0.5924984
inclination: 26.6946°
perigee height: 40567 km
apogee height: 177083 km
right ascension of ascending node: 195.0207°
argument of perigee: 116.6382°
revolutions per day: 0.22202230
mean anomaly at epoch: 359.2663°
orbit number at epoch: 4359

The dashed part of the orbit path shows where the satellite is in the earth's shadow,  

DLR